Location: ??????
(55.7522°N, 37.6156°E)
Time: 17:14:49
(UTC+00:00)

Cosmos 2034 Rocket - Pass Details

Date: 14 June 2025
Orbit: 958 x 999 km, 82.9° (Epoch: 13 July)

Event Time Altitude Azimuth Distance (km) Brightness Sun altitude
Rises 21:39:21 0° 346° (NNW) 3,666 8.7 -10.9°
Reaches altitude 10° 21:41:55 10° 342° (NNW) 2,719 7.6 -10.9°
Maximum altitude 21:47:54 52° 268° (W) 1,204 4.5 -10.8°
Enters shadow 21:53:15 13° 196° (SSW) 2,497 5.5 -10.8°
